Flag for Canada Weather past 2 weeks in Annapolis County, Nova Scotia, Canada

Now
54 °F

Cool.


Feels Like: 54 °F
Forecast: N/A
Wind: 1 mph from West

Location: Kejimkujik 1

Current Time: Apr 18, 2015 at 6:16:08 PM

Latest Report: Apr 18, 2015 at 5:00 PM


Visibility: N/A

Pressure: 29.88 "Hg

Humidity: 31%

Dew point: 24 °F

Location of Annapolis CountyLocation

Historic Weather in Annapolis County — Graph

°F

Annapolis County temperature yesterday

Maximum temperature yesterday: 52 °F (at 12:00 PM)
Minimum temperature yesterday: 29 °F (at 3:00 AM)
Average temperature yesterday: 40 °F

Past Weeks' High & Low Weather Summary

 TemperatureHumidityPressure
High64 °F (Apr 13, 3:00 PM)100% (Apr 7, 12:00 AM)30.53 "Hg (Apr 7, 12:00 AM)
Low16 °F (Apr 6, 7:00 AM)22% (Apr 16, 5:00 PM)29.17 "Hg (Apr 4, 2:00 PM)
Average36 °F73%30.12 "Hg
* Reported Apr 3 5:00 PM — Apr 18 5:00 PM, Annapolis County, Weather by CustomWeather, © 2015

Note: Actual official high and low records may vary slightly from our data, if they occured in-between our weather recording intervals... More about our weather records

Advertising

Annapolis County weather history for previous 24 hours

 ConditionsComfort  
Time TempWeatherWind HumidityBarometerVisibility
5:00 PM
Sat, Apr 18
54 °FCool.1 mph31%29.88 "HgN/A
4:00 PM55 °FCool.3 mph35%29.88 "HgN/A
3:00 PM52 °FCool.3 mph36%29.90 "HgN/A
2:00 PM53 °FCool.3 mph38%29.91 "HgN/A
1:00 PM52 °FCool.3 mph44%29.91 "HgN/A
12:00 PM49 °FCool.3 mph51%29.92 "HgN/A
11:00 AM47 °FCool.5 mph60%29.90 "HgN/A
10:00 AM45 °FCool.2 mph73%29.90 "HgN/A
9:00 AM42 °FQuite cool.5 mph96%29.90 "HgN/A
8:00 AM37 °FChilly.3 mph98%29.89 "HgN/A
7:00 AM34 °FChilly.3 mph98%29.86 "HgN/A
6:00 AM35 °FChilly.2 mph99%29.83 "HgN/A
5:00 AM36 °FChilly.3 mph98%29.80 "HgN/A
4:00 AM36 °FChilly.2 mph99%29.79 "HgN/A
3:00 AM38 °FChilly.5 mph98%29.78 "HgN/A
2:00 AM39 °FChilly.5 mph97%29.78 "HgN/A
1:00 AM40 °FChilly.2 mph97%29.77 "HgN/A
12:00 AM40 °FChilly.3 mph97%29.78 "HgN/A
11:00 PM
Fri, Apr 17
40 °FQuite cool.5 mph97%29.78 "HgN/A
10:00 PM42 °FQuite cool.3 mph97%29.78 "HgN/A
9:00 PM42 °FQuite cool.5 mph96%29.78 "HgN/A
8:00 PM43 °FQuite cool.3 mph95%29.78 "HgN/A
7:00 PM44 °FQuite cool.7 mph92%29.77 "HgN/A
6:00 PM44 °FQuite cool.6 mph94%29.78 "HgN/A
Weather by CustomWeather, © 2015

See weather overviewHow to use our weather pages